TimeEST,TemperatureF,Dew PointF,Humidity,Sea Level PressureIn,VisibilityMPH,Wind Direction,Wind SpeedMPH,Gust SpeedMPH,PrecipitationIn,Events,Conditions,WindDirDegrees,DateUTC
12:54 AM,27.0,23.0,85,30.15,10.0,Calm,Calm,-,N/A,,Overcast,0,2013-02-25 05:54:00
1:54 AM,28.9,21.9,75,30.16,10.0,Calm,Calm,-,N/A,,Overcast,0,2013-02-25 06:54:00
2:54 AM,28.0,21.9,78,30.17,10.0,Calm,Calm,-,N/A,,Overcast,0,2013-02-25 07:54:00
3:54 AM,27.0,23.0,85,30.18,10.0,Calm,Calm,-,N/A,,Overcast,0,2013-02-25 08:54:00
4:54 AM,27.0,23.0,85,30.18,10.0,Calm,Calm,-,N/A,,Overcast,0,2013-02-25 09:54:00
5:54 AM,27.0,23.0,85,30.18,10.0,Calm,Calm,-,N/A,,Overcast,0,2013-02-25 10:54:00
6:54 AM,28.0,23.0,81,30.19,10.0,Calm,Calm,-,N/A,,Overcast,0,2013-02-25 11:54:00
7:54 AM,27.0,23.0,85,30.20,10.0,Calm,Calm,-,N/A,,Overcast,0,2013-02-25 12:54:00
8:54 AM,28.0,23.0,81,30.21,10.0,Calm,Calm,-,N/A,,Overcast,0,2013-02-25 13:54:00
9:54 AM,28.9,24.1,82,30.21,10.0,SSE,3.5,-,N/A,,Overcast,150,2013-02-25 14:54:00
10:23 AM,28.4,24.8,86,30.18,9.0,SSE,3.5,-,N/A,,Overcast,150,2013-02-25 15:23:00
10:54 AM,30.0,24.1,79,30.21,10.0,SE,3.5,-,N/A,,Overcast,130,2013-02-25 15:54:00
11:54 AM,30.0,25.0,82,30.20,10.0,SE,3.5,-,N/A,,Overcast,130,2013-02-25 16:54:00
12:54 PM,32.0,26.1,79,30.19,10.0,SSE,4.6,-,N/A,,Overcast,150,2013-02-25 17:54:00
1:54 PM,34.0,23.0,64,30.18,10.0,South,4.6,-,N/A,,Overcast,180,2013-02-25 18:54:00
2:54 PM,35.1,21.0,57,30.17,10.0,West,8.1,-,N/A,,Overcast,260,2013-02-25 19:54:00
3:54 PM,35.1,21.0,57,30.17,10.0,WSW,5.8,-,N/A,,Overcast,240,2013-02-25 20:54:00
4:54 PM,35.1,21.0,57,30.16,10.0,South,4.6,-,N/A,,Overcast,180,2013-02-25 21:54:00
5:54 PM,34.0,21.0,59,30.17,10.0,SW,5.8,-,N/A,,Overcast,220,2013-02-25 22:54:00
6:54 PM,33.1,21.9,64,30.18,10.0,WNW,3.5,-,N/A,,Overcast,290,2013-02-25 23:54:00
7:54 PM,32.0,24.1,73,30.19,10.0,ENE,3.5,-,N/A,,Overcast,60,2013-02-26 00:54:00
8:54 PM,30.0,25.0,82,30.17,10.0,Calm,Calm,-,N/A,,Overcast,0,2013-02-26 01:54:00
9:54 PM,28.9,24.1,82,30.17,10.0,Calm,Calm,-,N/A,,Overcast,0,2013-02-26 02:54:00
10:54 PM,28.9,25.0,85,30.15,10.0,Calm,Calm,-,N/A,,Overcast,0,2013-02-26 03:54:00
11:54 PM,28.9,24.1,82,30.16,10.0,Calm,Calm,-,N/A,,Overcast,0,2013-02-26 04:54:00